Home > Weather > Rouyn-Noranda > Past weeks

Flag for Canada Past Weather in Rouyn-Noranda, Quebec, Canada — Yesterday and Last 2 Weeks

Now
68 °F

Broken clouds.


Feels Like: 68 °F
Forecast: 57 / 81 °F
Wind: 6 mph from South

Location: Rouyn Airport

Current Time: May 29, 2016 at 9:43:05 AM

Latest Report: May 29, 2016 at 9:00 AM


Visibility: 8 mi

Pressure: 29.96 "Hg

Humidity: 88%

Dew Point: 64 °F

Location of Rouyn-NorandaLocation

Past Weather in Rouyn-Noranda — Graph

°F

Rouyn-Noranda Temperature Yesterday

Maximum temperature yesterday: 59 °F (at 6:00 PM)
Minimum temperature yesterday: 52 °F (at 1:00 AM)
Average temperature yesterday: 55 °F

High & Low Weather Summary for the Past Weeks

 TemperatureHumidityPressure
High84 °F (May 24, 3:00 PM)100% (May 25, 5:00 AM)30.29 "Hg (May 25, 5:00 AM)
Low27 °F (May 15, 6:00 AM)20% (May 23, 6:00 PM)29.63 "Hg (May 14, 3:00 PM)
Average52 °F66%30.02 "Hg
* Reported May 14 8:00 AM — May 29 8:00 AM, Rouyn-Noranda, Weather by CustomWeather, © 2016

Note: Actual official high and low records may vary slightly from our data, if they occured in-between our weather recording intervals... More about our weather records

Advertising

Rouyn-Noranda Weather History for the Previous 24 Hours

Scroll right to see more
 ConditionsComfort  
Time TempWeatherWind HumidityBarometerVisibility
8:00 AM
Sun, May 29
63 °FBroken clouds.6 mph94%29.98 "Hg15 mi
7:00 AM61 °FBroken clouds.3 mph94%29.98 "Hg15 mi
6:00 AM59 °FPartly cloudy.3 mph94%29.98 "Hg15 mi
5:00 AM57 °FPartly cloudy.2 mph94%30.00 "Hg15 mi
4:00 AM57 °FPassing clouds.No wind94%30.00 "Hg15 mi
3:00 AM55 °FPassing clouds.No wind100%30.02 "Hg15 mi
2:00 AM57 °FClear.3 mph94%30.02 "Hg15 mi
1:00 AM57 °FPassing clouds.3 mph94%30.03 "Hg15 mi
12:00 AM57 °FPassing clouds.3 mph94%30.03 "Hg15 mi
11:00 PM
Sat, May 28
57 °FMostly cloudy.6 mph94%30.03 "Hg15 mi
10:00 PM57 °FLight rain. More clouds than sun.7 mph94%30.05 "Hg15 mi
9:00 PM57 °FLight rain. Mostly cloudy.8 mph94%30.07 "Hg15 mi
8:00 PM57 °FLight rain. Mostly cloudy.9 mph94%30.07 "Hg15 mi
7:00 PM59 °FMostly cloudy.12 mph88%30.08 "Hg15 mi
6:00 PM59 °FMostly cloudy.12 mph88%30.10 "Hg15 mi
5:00 PM57 °FMostly cloudy.10 mph94%30.10 "Hg15 mi
4:00 PM55 °FLight rain. Mostly cloudy.15 mph94%30.10 "Hg15 mi
3:00 PM54 °FLight rain. Fog.13 mph100%30.12 "Hg5 mi
2:51 PM54 °FLight rain. Fog.12 mph100%30.13 "Hg5 mi
2:00 PM55 °FLight rain. Fog.12 mph94%30.15 "Hg4 mi
1:00 PM55 °FLight rain. Mostly cloudy.12 mph94%30.15 "Hg8 mi
12:00 PM57 °FLight rain. Mostly cloudy.10 mph88%30.15 "Hg15 mi
11:00 AM57 °FLight rain. Cloudy.8 mph88%30.15 "Hg15 mi
10:00 AM57 °FLight rain. Cloudy.8 mph82%30.13 "Hg15 mi
9:56 AM57 °FLight rain. Cloudy.7 mph82%30.14 "Hg15 mi
9:00 AM57 °FCloudy.7 mph77%30.14 "Hg15 mi
Weather by CustomWeather, © 2016

See weather overviewHow to use our weather pages